Location: Godiavel Galaoual
(15.2485°N, 12.6604°W)
Time: 21:22:20
(UTC+00:00)

BEESAT - Pass Details

Date: 30 July 2021
Orbit: 699 x 708 km, 98.6° (Epoch: 25 September)

Event Time Altitude Azimuth Distance (km) Brightness Sun altitude
Rises 19:54:53 0° 13° (NNE) 3,095 ? -8.4°
Reaches altitude 10° 19:57:09 10° 15° (NNE) 2,176 ? -8.9°
Maximum altitude 20:01:55 82° 103° (ESE) 717 ? -10.0°
Drops below altitude 10° 20:06:41 10° 190° (S) 2,171 ? -11.0°
Sets 20:08:56 0° 191° (S) 3,087 ? -11.5°
